Regional Weather Roundup
Issued by NWS

Home | Current Version | Previous Version | Graphics & Text | Print | Product List | Glossary On
Versions: 1 2 3 4 5 6 7 8 9 10 11 12 13 14 15 16 17 18 19 20 21 22 23 24 25 26 27 28 29 30 31 32 33 34 35 36 37 38 39 40 41 42 43 44 45 46 47 48 49 50
104
ASUS43 KLOT 271308
RWRIL

ILLINOIS REGIONAL WEATHER ROUNDUP
NATIONAL WEATHER SERVICE CHICAGO/ROMEOVILLE IL
800 AM CDT MON MAR 27 2017

NOTE: "FAIR" INDICATES FEW OR NO CLOUDS BELOW 12,000 FEET WITH NO
SIGNIFICANT WEATHER AND/OR OBSTRUCTIONS TO VISIBILITY.

* THESE STATIONS ARE NOT UNDER NWS QUALITY CONTROL. THEY ALSO MAY NOT
  REPORT WEATHER SUCH AS PRECIPITATION OR FOG.

ILZ001-002-007-009-015-016-024-271400-
NORTHWEST ILLINOIS

CITY           SKY/WX    TMP DP  RH WIND       PRES   REMARKS
MOLINE         CLOUDY    49  45  86 CALM      29.92R FOG
STERLING*      CLOUDY    47  45  93 N5        29.93S
SAVANNA*       CLOUDY    45  43  92 N6        29.94R FOG
$$

ILZ003-004-008-010-011-017-018-271400-
NORTH CENTRAL ILLINOIS

CITY           SKY/WX    TMP DP  RH WIND       PRES   REMARKS
ROCKFORD       CLOUDY    46  43  89 N7        29.94S
FREEPORT*      FOG       43  43  99 N3        29.94S VSB 1
ROCHELLE*      FOG       45  45  99 NE6       29.93R VSB 1/2
DE KALB*       FOG       46  45  99 CALM      29.94R VSB 1/4
PERU*          CLOUDY    47  45  93 CALM      29.94R FOG
$$

ILZ005-006-012>014-019>023-271400-
NORTHEAST ILLINOIS

CITY           SKY/WX    TMP DP  RH WIND       PRES   REMARKS
CHICAGO-OHARE  CLOUDY    49  47  93 N5        29.92S FOG
CHICAGO-MIDWAY CLOUDY    50  48  93 SW7       29.93S
AURORA         CLOUDY    49  47  93 W3        29.93R FOG
LANSING*       CLOUDY    49  49  99 W3        29.94S FOG
JOLIET*        CLOUDY    50  49  97 CALM      29.94S FOG
WAUKEGAN       CLOUDY    44  42  93 N3        29.94R
DUPAGE AIRPORT FOG       49  49 100 N3        29.92S VSB 1
KANKAKEE*      CLOUDY    50  49  97 CALM      29.94S FOG
WHEELING       CLOUDY    46  46 100 N6        29.94R
MORRIS*        CLOUDY    49  47  92 CALM      29.93S
ROMEOVILLE*    CLOUDY    48  48 100 W3        29.94R
$$

LMZ740>746-271400-
SOUTHERN LAKE MICHIGAN

STATION/POSITION SKY/WX   TEMP    WIND        PRES    VSBY  WAVE
                          AIR SEA DIR/SP/G                  HT/PER
                          (F)     (DEG/KT/KT) (MB)    (MI)  (FT/S)
HARRISON CRIB              40      20/  5/  5   N/A
BURNHAM HARBOR             41     340/  1/  4   N/A
CALUMET HARBOR             49     210/  5/  5 1013.2R
BURNS HARBOR               48     260/  5/  7 1014.6R
MICHIGAN CITY              47     230/ 10/ 11   N/A
$$

ILZ025>027-034>036-040-047-049-050-058-095>099-271400-
WEST-CENTRAL ILLINOIS

CITY           SKY/WX    TMP DP  RH WIND       PRES   REMARKS
QUINCY         LGT RAIN  47  46  97 E7        29.91R FOG
GALESBURG*     CLOUDY    46  46 100 N3        29.91S FOG
MACOMB*        FOG       47  47 100 NE6       29.94R VSB 1
JACKSONVILLE*  DRIZZLE   47  46  94 NE6       29.91S
PITTSFIELD*    CLOUDY    48  46  95 NE5       29.92R
$$

ILZ028>032-037-038-041>044-048-051>054-059>061-271400-
CENTRAL ILLINOIS

CITY           SKY/WX    TMP DP  RH WIND       PRES   REMARKS
PONTIAC        CLOUDY    49  49  98 CALM      29.94S FOG
BLOOMINGTON    LGT RAIN  47  46  97 VRB5      29.95R VSB 1/2
DECATUR        CLOUDY    46  45  96 E6        29.92R FOG
PEORIA         LGT RAIN  48  47  96 N3        29.92S FOG
LACON*         CLOUDY    47  46  96 CALM      29.92R
LINCOLN*       CLOUDY    47  47 100 CALM      29.93R FOG
SPRINGFIELD    CLOUDY    49  47  93 E7        29.92R FOG
TAYLORVILLE    CLOUDY    48  46  93 E7        29.91S
$$

ILZ033-039-045-046-055>057-062-063-271400-
EAST-CENTRAL ILLINOIS

CITY           SKY/WX    TMP DP  RH WIND       PRES   REMARKS
CHAMPAIGN      PTSUNNY   48  46  93 E7        29.94R
RANTOUL*       CLOUDY    49  49  99 SE3       29.95R FOG
MATTOON        PTSUNNY   48  48 100 E5        29.92S FOG
PARIS*         PTSUNNY   49  49 100 CALM      29.95R FOG
$$

ILZ079-100>102-271400-
SOUTHWEST ILLINOIS

CITY           SKY/WX    TMP DP  RH WIND       PRES   REMARKS
ALTON          CLOUDY    48  48 100 VRB5      29.89F
BELLEVILLE     LGT RAIN  50  50 100 N7        29.84F
CAHOKIA*       LGT RAIN  52  49  89 N9        29.84F
SPARTA*        LGT RAIN  53  52  95 E9        29.84F
$$

ILZ064>066-069>071-074>076-080>082-084>086-088>090-092>094-271400-
SOUTH-CENTRAL ILLINOIS

CITY           SKY/WX    TMP DP  RH WIND       PRES   REMARKS
CARBONDALE     LGT RAIN  54  54 100 SE6       29.87F
CAIRO*         CLOUDY    56  55  95 SE9       29.87R
EFFINGHAM*     CLOUDY    49  49  99 E5        29.92F
MARION         CLOUDY    54  54 100 E5        29.89F
MT. VERNON     RAIN      53  50  89 S10       29.94R
CENTRALIA*     TSTM      54  51  89 S12       29.91R
SALEM*         CLOUDY    53  47  82 E5        29.88S
METROPOLIS*    CLOUDY    56  55  95 SE8       29.90F THUNDER
$$

ILZ067-068-072-073-078-083-087-091-271400-
SOUTHEAST ILLINOIS

CITY           SKY/WX    TMP DP  RH WIND       PRES   REMARKS
LAWRENCEVILLE  CLOUDY    49  47  93 E7        29.94S
FLORA*         CLOUDY    51  48  88 E6        29.90F
FAIRFIELD*     CLOUDY    52  48  88 SE3       29.90R
HARRISBURG*    RAIN      53  51  94 E5        29.94R
ROBINSON*      CLOUDY    46  46 100 E5        29.95F FOG
CARMI*         CLOUDY    52  50  92 S12       29.94R
$$

ABBREVIATIONS USED IN REMARKS
   TC - TEMPERATURE IN CELSIUS
  WCI - WIND CHILL INDEX
   HX - HEAT INDEX
  VSB - VISIBILITY
$$





USA.gov is the U.S. government's official web portal to all federal, state and local government web resources and services.